When you browse on this site, cookies collect data to enhance your experience and personalize the content and advertising you see.
Visit our Privacy Policy to learn more. By continuing to use the site, you agree to this use of cookies and data.
  • In France
  • List of Countries
  • For 7 days
  • Water Temperature
  • Satellite Maps
  • Weather Map
  • Weather Widgets
  • user-avatar
    Login

    Hourly Weather Yulara

    Today, 26 April, Friday

    Time Temperature Precipitation Wind Pressure Humidity
    00:00 +17°C° 0 mm 6 mps 722 mmHg 37%
    01:00 +17°C° 0 mm 6 mps 722 mmHg 39%
    02:00 +17°C° 0 mm 6 mps 722 mmHg 40%
    03:00 +16°C° 0 mm 6 mps 721 mmHg 42%
    04:00 +16°C° 0 mm 6 mps 722 mmHg 44%
    05:00 +16°C° 0 mm 6 mps 722 mmHg 46%
    06:00 +16°C° 0 mm 6 mps 722 mmHg 47%
    07:00 +17°C° 0 mm 7 mps 722 mmHg 45%
    08:00 +18°C° 0 mm 8 mps 722 mmHg 43%
    09:00 +21°C° 0 mm 9 mps 723 mmHg 40%
    10:00 +22°C° 0 mm 9 mps 723 mmHg 36%
    11:00 +24°C° 0 mm 8 mps 723 mmHg 32%
    12:00 +27°C° 0 mm 8 mps 722 mmHg 27%
    13:00 +27°C° 0 mm 9 mps 722 mmHg 26%
    14:00 +28°C° 0 mm 9 mps 721 mmHg 25%
    15:00 +28°C° 0 mm 9 mps 721 mmHg 23%
    16:00 +27°C° 0 mm 8 mps 721 mmHg 26%
    17:00 +24°C° 0 mm 7 mps 721 mmHg 28%
    18:00 +23°C° 0 mm 7 mps 721 mmHg 31%
    19:00 +22°C° 0 mm 7 mps 722 mmHg 33%
    20:00 +21°C° 0 mm 7 mps 722 mmHg 36%
    21:00 +20°C° 0 mm 6 mps 723 mmHg 39%
    22:00 +18°C° 0 mm 7 mps 723 mmHg 42%
    23:00 +17°C° 0 mm 7 mps 723 mmHg 44%

    Tomorrow, 27 April, Saturday

    Time Temperature Precipitation Wind Pressure Humidity
    00:00 +16°C° 0 mm 7 mps 723 mmHg 46%
    01:00 +16°C° 0 mm 7 mps 723 mmHg 47%
    02:00 +15°C° 0 mm 7 mps 722 mmHg 48%
    03:00 +15°C° 0 mm 7 mps 722 mmHg 49%
    04:00 +14°C° 0 mm 6 mps 723 mmHg 50%
    05:00 +14°C° 0 mm 6 mps 723 mmHg 52%
    06:00 +13°C° 0 mm 6 mps 723 mmHg 53%
    07:00 +15°C° 0 mm 7 mps 723 mmHg 49%
    08:00 +16°C° 0 mm 8 mps 724 mmHg 45%
    09:00 +18°C° 0 mm 9 mps 724 mmHg 41%
    10:00 +21°C° 0 mm 9 mps 724 mmHg 37%
    11:00 +23°C° 0 mm 8 mps 724 mmHg 32%
    12:00 +26°C° 0 mm 8 mps 724 mmHg 28%
    13:00 +27°C° 0 mm 8 mps 723 mmHg 26%
    14:00 +28°C° 0 mm 8 mps 722 mmHg 24%
    15:00 +28°C° 0 mm 8 mps 722 mmHg 22%
    16:00 +27°C° 0 mm 7 mps 722 mmHg 24%
    17:00 +26°C° 0 mm 7 mps 722 mmHg 26%
    18:00 +23°C° 0 mm 6 mps 722 mmHg 28%
    19:00 +22°C° 0 mm 6 mps 723 mmHg 30%
    20:00 +21°C° 0 mm 7 mps 723 mmHg 33%
    21:00 +20°C° 0 mm 7 mps 723 mmHg 35%
    22:00 +18°C° 0 mm 7 mps 723 mmHg 37%
    23:00 +18°C° 0 mm 7 mps 724 mmHg 38%

    Day after tomorrow, 28 April, Sunday

    Time Temperature Precipitation Wind Pressure Humidity
    00:00 +17°C° 0 mm 7 mps 724 mmHg 40%
    01:00 +16°C° 0 mm 6 mps 723 mmHg 42%
    02:00 +16°C° 0 mm 6 mps 723 mmHg 43%
    03:00 +15°C° 0 mm 6 mps 723 mmHg 45%
    04:00 +15°C° 0 mm 6 mps 723 mmHg 47%
    05:00 +14°C° 0 mm 6 mps 723 mmHg 48%
    06:00 +14°C° 0 mm 5 mps 723 mmHg 49%
    07:00 +15°C° 0 mm 6 mps 724 mmHg 44%
    08:00 +17°C° 0 mm 7 mps 724 mmHg 39%
    09:00 +18°C° 0 mm 8 mps 725 mmHg 34%
    10:00 +21°C° 0 mm 8 mps 724 mmHg 30%
    11:00 +23°C° 0 mm 8 mps 724 mmHg 26%
    12:00 +27°C° 0 mm 7 mps 724 mmHg 23%
    13:00 +27°C° 0 mm 7 mps 723 mmHg 21%
    14:00 +28°C° 0 mm 7 mps 723 mmHg 20%
    15:00 +29°C° 0 mm 7 mps 722 mmHg 19%
    16:00 +27°C° 0 mm 6 mps 722 mmHg 20%
    17:00 +26°C° 0 mm 6 mps 722 mmHg 20%
    18:00 +23°C° 0 mm 5 mps 722 mmHg 20%
    19:00 +22°C° 0 mm 5 mps 722 mmHg 20%
    20:00 +20°C° 0 mm 5 mps 723 mmHg 21%
    21:00 +19°C° 0 mm 6 mps 723 mmHg 21%
    22:00 +17°C° 0 mm 5 mps 723 mmHg 23%
    23:00 +16°C° 0 mm 5 mps 723 mmHg 24%

    29 April, Monday

    Time Temperature Precipitation Wind Pressure Humidity
    00:00 +16°C° 0 mm 5 mps 723 mmHg 25%
    01:00 +15°C° 0 mm 5 mps 723 mmHg 27%
    02:00 +14°C° 0 mm 5 mps 722 mmHg 28%
    03:00 +14°C° 0 mm 4 mps 722 mmHg 30%
    04:00 +13°C° 0 mm 4 mps 722 mmHg 31%
    05:00 +13°C° 0 mm 4 mps 722 mmHg 33%
    06:00 +12°C° 0 mm 4 mps 722 mmHg 34%
    07:00 +14°C° 0 mm 5 mps 723 mmHg 30%
    08:00 +16°C° 0 mm 5 mps 723 mmHg 27%
    09:00 +19°C° 0 mm 6 mps 724 mmHg 23%
    10:00 +21°C° 0 mm 5 mps 723 mmHg 21%
    11:00 +23°C° 0 mm 5 mps 722 mmHg 19%
    12:00 +26°C° 0 mm 4 mps 722 mmHg 16%
    13:00 +27°C° 0 mm 3 mps 721 mmHg 16%
    14:00 +28°C° 0 mm 3 mps 720 mmHg 17%
    15:00 +28°C° 0 mm 2 mps 720 mmHg 17%
    16:00 +27°C° 0 mm 2 mps 719 mmHg 19%
    17:00 +25°C° 0 mm 2 mps 719 mmHg 21%
    18:00 +24°C° 0 mm 2 mps 719 mmHg 24%
    19:00 +23°C° 0 mm 2 mps 720 mmHg 24%
    20:00 +22°C° 0 mm 3 mps 720 mmHg 24%
    21:00 +21°C° 0 mm 3 mps 720 mmHg 24%
    22:00 +20°C° 0 mm 3 mps 720 mmHg 25%
    23:00 +19°C° 0 mm 3 mps 720 mmHg 25%

    30 April, Tuesday

    Time Temperature Precipitation Wind Pressure Humidity
    00:00 +19°C° 0 mm 3 mps 720 mmHg 26%
    01:00 +18°C° 0 mm 3 mps 719 mmHg 27%
    02:00 +17°C° 0 mm 2 mps 719 mmHg 29%
    03:00 +17°C° 0 mm 2 mps 719 mmHg 30%
    04:00 +16°C° 0 mm 2 mps 719 mmHg 32%
    05:00 +16°C° 0 mm 2 mps 719 mmHg 33%
    06:00 +15°C° 0 mm 2 mps 719 mmHg 35%
    07:00 +18°C° 0 mm 2 mps 720 mmHg 31%
    08:00 +20°C° 0 mm 2 mps 720 mmHg 28%
    09:00 +24°C° 0 mm 2 mps 721 mmHg 24%
    10:00 +26°C° 0 mm 2 mps 720 mmHg 23%
    11:00 +27°C° 0 mm 1 mps 720 mmHg 21%
    12:00 +29°C° 0 mm 1 mps 719 mmHg 20%
    13:00 +30°C° 0 mm 2 mps 719 mmHg 19%
    14:00 +31°C° 0 mm 3 mps 718 mmHg 18%
    15:00 +32°C° 0 mm 4 mps 718 mmHg 17%
    16:00 +30°C° 0 mm 4 mps 718 mmHg 18%
    17:00 +29°C° 0 mm 4 mps 718 mmHg 20%
    18:00 +27°C° 0 mm 4 mps 719 mmHg 21%
    19:00 +26°C° 0 mm 6 mps 719 mmHg 22%
    20:00 +24°C° 0 mm 7 mps 720 mmHg 23%
    21:00 +24°C° 0 mm 9 mps 720 mmHg 24%
    22:00 +22°C° 0 mm 8 mps 721 mmHg 34%
    23:00 +21°C° 0 mm 8 mps 721 mmHg 44%

    1 May, Wednesday

    Time Temperature Precipitation Wind Pressure Humidity
    00:00 +20°C° 0 mm 8 mps 721 mmHg 55%
    01:00 +18°C° 0 mm 8 mps 721 mmHg 60%
    02:00 +17°C° 0 mm 7 mps 721 mmHg 65%
    03:00 +16°C° 0 mm 7 mps 721 mmHg 70%
    04:00 +15°C° 0 mm 7 mps 721 mmHg 72%
    05:00 +14°C° 0 mm 7 mps 722 mmHg 75%
    06:00 +12°C° 0 mm 8 mps 722 mmHg 77%
    07:00 +13°C° 0 mm 8 mps 722 mmHg 69%
    08:00 +15°C° 0 mm 8 mps 723 mmHg 61%
    09:00 +16°C° 0 mm 8 mps 723 mmHg 52%
    10:00 +18°C° 0 mm 7 mps 723 mmHg 45%
    11:00 +21°C° 0 mm 7 mps 723 mmHg 38%
    12:00 +23°C° 0 mm 6 mps 723 mmHg 31%
    13:00 +24°C° 0 mm 6 mps 722 mmHg 28%
    14:00 +26°C° 0 mm 6 mps 722 mmHg 25%
    15:00 +27°C° 0 mm 5 mps 721 mmHg 22%
    16:00 +25°C° 0 mm 5 mps 721 mmHg 24%
    17:00 +23°C° 0 mm 5 mps 722 mmHg 25%
    18:00 +21°C° 0 mm 6 mps 722 mmHg 26%
    19:00 +20°C° 0 mm 6 mps 722 mmHg 29%
    20:00 +19°C° 0 mm 6 mps 723 mmHg 32%
    21:00 +16°C° 0 mm 6 mps 723 mmHg 35%
    22:00 +16°C° 0 mm 6 mps 723 mmHg 38%
    23:00 +15°C° 0 mm 5 mps 723 mmHg 41%
    Show more